weather.gov     
National Weather Service

Regional Weather Roundup
NWS Homepage
This page is being discontinued on March 12, 2014.
The same data is available at this site. Please update your bookmarks.
Thank you, and we apologize for the inconvenience.
Please send an email to SR-SRH.Webmaster@noaa.gov with any concerns.


Current Version
Previous Version:    01  02  03  04  05  06  07  08  09  10  11  12  13  14  15  16  17  18  19  20  21  22  23  24  25  26  27  28  29  30  
   31  32  33  34  35  36  37  38  39  40  41  42  43  44  45  46  47  48  49  50  51  52  53  
[Printable]
584
ASUS43 KOAX 020810
RWRNE

WEATHER ROUNDUP FOR NEBRASKA
NATIONAL WEATHER SERVICE OMAHA NE
300 AM CDT SAT AUG 02 2014

NOTES: SATELLITE DATA IS BEING USED TO AUGMENT CLOUD COVER ABOVE
       12000 FEET.
       "FAIR" INDICATES FEW OR NO CLOUDS BELOW 12,000 FEET WITH NO
       SIGNIFICANT WEATHER AND/OR OBSTRUCTIONS TO VISIBILITY.

  * THESE STATIONS DO NOT REPORT WEATHER SUCH AS RAIN...SNOW OR FOG.

NEZ001>004-019>022-054>056-020900-
NEBRASKA PANHANDLE

CITY           SKY/WX    TMP DP  RH WIND       PRES   REMARKS
SCOTTSBLUFF    CLEAR     60  51  72 N5        30.17S
ALLIANCE       PTCLDY    59  45  59 W7        30.16R
CHADRON        PTCLDY    57  48  72 N5        30.11R
KIMBALL        CLEAR     58  52  79 SW6       30.22S
SIDNEY         CLEAR     62  50  64 SW9       30.19F
$$

NEZ057>060-069>072-079>082-020900-
SOUTHWEST NEBRASKA

CITY           SKY/WX    TMP DP  RH WIND       PRES   REMARKS
NORTH PLATTE   PTCLDY    66  57  72 SE6       30.14S
IMPERIAL       CLEAR     66  52  60 S7        30.16S
LEXINGTON      CLEAR     59  56  90 CALM      30.15R
MCCOOK         CLEAR     65  54  67 S3        30.15S
OGALLALA       CLEAR     64  52  65 SW7       30.15S
$$

NEZ005>010-023>029-035>040-094-020900-
NORTH CENTRAL NEBRASKA

CITY           SKY/WX    TMP DP  RH WIND       PRES   REMARKS
AINSWORTH      PTCLDY    64  59  83 SE10      30.15R
BROKEN BOW     CLOUDY    66  59  78 E6        30.17R
O`NEILL        LGT RAIN  66  63  90 CALM      30.15S
ORD            MOCLDY    65  61  87 SE8       30.13F
THEDFORD       CLOUDY    68  59  73 E12       30.17R
$$

NEZ041-046>049-061>064-073>077-083>087-020900-
SOUTH CENTRAL NEBRASKA

CITY           SKY/WX    TMP DP  RH WIND       PRES   REMARKS
GRAND ISLAND   CLEAR     63  59  87 N5        30.17R
AURORA         CLEAR     62  61  95 NE3       30.15R
HASTINGS       CLEAR     67  59  75 SE8       30.13S
HEBRON         CLEAR     61  58  89 CALM      30.11F
HOLDREGE       CLEAR     58  54  88 SE8       30.14S
KEARNEY *      CLEAR     59  55  88 N7        30.15R
YORK           PTCLDY    66  61  82 E5        30.13S
$$

NEZ011>018-030>034-042>045-020900-
NORTHEAST NEBRASKA

CITY           SKY/WX    TMP DP  RH WIND       PRES   REMARKS
NORFOLK        CLOUDY    63  60  90 CALM      30.16S FOG
ALBION         MOCLDY    64  60  88 CALM      30.18S
BLAIR          MOCLDY    66  60  80 CALM      30.13S
COLUMBUS *     PTCLDY    61  55  82 CALM      30.15R
FREMONT        MOCLDY    65  62  89 CALM      30.14R
TEKAMAH        MOCLDY    61  58  90 N3        30.13R
WAYNE          CLOUDY    60  58  95 CALM      30.15F
$$

NEZ050>053-065>068-078-088>093-020900-
SOUTHEAST NEBRASKA

CITY           SKY/WX    TMP DP  RH WIND       PRES   REMARKS
LINCOLN        PTCLDY    61  57  87 CALM      30.13R
OMAHA EPPLEY   MOCLDY    63  60  90 NW5       30.12R
BEATRICE       CLEAR     66  62  87 CALM      30.11F
FALLS CITY     CLEAR     67  63  87 CALM      30.10S
NEBRASKA CITY  CLEAR     65  65 100 CALM      30.12S
PLATTSMOUTH    PTCLDY    65  61  87 CALM      30.12S
$$

NEZ044-045-051>053-067-020900-
OMAHA AREA

CITY           SKY/WX    TMP DP  RH WIND       PRES   REMARKS
OMAHA EPPLEY   MOCLDY    63  60  90 NW5       30.12R
BLAIR          MOCLDY    66  60  80 CALM      30.13S
FREMONT        MOCLDY    65  62  89 CALM      30.14R
MILLARD        MOCLDY    65  63  93 CALM      30.11S
OFFUTT AFB     MOCLDY    61  61 100 CALM      30.11R
PLATTSMOUTH    PTCLDY    65  61  87 CALM      30.12S
WAHOO          FAIR      64  61  91 N5        30.12S
$$




U.S. Dept. of Commerce
NOAA National Weather Service
1325 East West Highway
Silver Spring, MD 20910
E-mail: w-nws.webmaster@noaa.gov
Page last modified: May 16, 2007
NATIONAL WEATHER SERVICE: for Safety, for Work, for Fun - FOR LIFE